Regional Weather Roundup
Issued by NWS Grand Forks, ND

Home | Current Version | Previous Version | Text Only | Print | Product List | Glossary On
Versions: 1 2 3 4 5 6 7 8 9 10 11 12 13 14 15 16 17 18 19 20 21 22 23 24 25 26 27 28 29 30 31 32 33 34 35 36 37 38 39 40 41 42 43 44 45 46 47 48 49 50
000
ASUS43 KFGF 260431
RWRFGF
PRAIRIE TO PINES  WEATHER ROUNDUP
NATIONAL WEATHER SERVICE EASTERN NORTH DAKOTA/GRAND FORKS ND
1000 PM CST SUN JAN 25 2015

 **SATELLITE DATA USED TO AUGMENT SKY COVER AT AUTOMATED STATIONS**
 *****  WEATHER ACROSS EASTERN NORTH DAKOTA  *****

CITY           SKY/WX    TMP DP  RH WIND       PRES   REMARKS
GRAND FORKS    CLOUDY    28  23  80 S18       29.73F WCI  16
GRAND FRKS AFB CLOUDY    28  25  86 SW16      29.75F WCI  17
GRAND FRKS NWS   N/A     27 N/A N/A S22         N/A  WCI  12
DEVILS LAKE    CLOUDY    34  30  86 SW14      29.68F WCI  24
FARGO          CLOUDY    28  21  75 S16       29.85F WCI  16
WAHPETON ARPT  CLOUDY    27  23  86 S10       29.88F WCI  17
$$

 ***** WEATHER ACROSS CENTRAL AND WESTERN NORTH DAKOTA  *****

CITY           SKY/WX    TMP DP  RH WIND       PRES   REMARKS
BISMARCK       CLOUDY    37  31  78 W5        29.79F
MINOT          PTCLDY    40  32  73 SW21G28   29.68F
JAMESTOWN      CLOUDY    30  28  92 S10       29.75F WCI  21
MINOT AFB      PTCLDY    37  37  99 W17       29.67F
GARRISON         N/A     36  32  85 W9        29.74S
WILLISTON      MOCLDY    43  35  73 W14       29.79F
DICKINSON      MOCLDY    42  34  73 W17       29.81R
HETTINGER      CLOUDY    42  34  73 W12       29.86F
$$

 *****  OTHER AIRPORT OBSERVATIONS IN OUR AREA  *****

CITY           SKY/WX    TMP DP  RH WIND       PRES   REMARKS
WALHALLA         N/A     32  32 100 SW12G23   29.64R WCI  23
GRAFTON AIRPOR NOT AVBL
VALLEY CITY AR NOT AVBL
CANDO          CLOUDY    36  32  87 SW20      29.63F
CAVALIER APRT  MOCLDY    28  25  86 S14       29.66F WCI  17
GWINNER        MOCLDY    32  32 100 SW20      29.83F WCI  20
SHEYENNE NWR     N/A     26  23  87 S9        29.95S WCI  17
ROLLA          MOCLDY    32  32 100 W25G31    29.60R WCI  19
 ***** THE ABOVE OBSERVATIONS ARE NON NWS ARE NOT QUALITY
       CONTROLLED AND MAY MIS-REPORT RAIN FOR SNOW...
$$

  *****  WEATHER ACROSS NORTHERN MINNESOTA  *****

CITY           SKY/WX    TMP DP  RH WIND       PRES   REMARKS
FLAG ISLAND    LGT SNOW  19  16  86 S17       29.68F VSB 1   WCI   4
WARROAD        LGT SNOW  21  18  86 S8        29.70F WCI  12
ROSEAU         CLOUDY    23  18  80 S15       29.70F WCI  10
HALLOCK        CLOUDY    25  21  86 S22       29.67F WCI  10
THF RVR FALLS  CLOUDY    25  19  80 S17       29.76F WCI  11
BAUDETTE       LGT SNOW  21  16  81 S12       29.72F WCI   9
WASKISH        CLOUDY    25  19  80 CALM      29.78F
CROOKSTON      CLOUDY    25  21  86 S18       29.79F WCI  11
STEPHEN NDAWN    N/A     25  21  86 S20         N/A  WCI  11
GREENBUSH NDAW   N/A     23  19  86 S20         N/A  WCI   8
$$
  *****  WEATHER ACROSS CENTRAL AND WEST MINNESOTA  *****

CITY           SKY/WX    TMP DP  RH WIND       PRES   REMARKS
FOSSTON        CLOUDY    21  18  86 S14       29.80F WCI   8
BEMIDJI        CLOUDY    26  18  74 SW8       29.81F WCI  17
PARK RAPIDS    CLOUDY    25  21  85 S9        29.86F WCI  15
ELBOW LAKE     CLOUDY    25  22  91 S10       29.89F WCI  14
WADENA         CLOUDY    23  19  86 SW7       29.90S WCI  15
DETROIT LAKES  MOCLDY    25  19  80 S10       29.85F WCI  15
MOORHEAD       CLOUDY    27  25  93 S12       29.87F WCI  16
FERGUS FALLS   CLOUDY    25  21  86 S7        29.94S WCI  17
MORRIS MN      CLOUDY    27  25  93 S9        29.90F WCI  17
STAPLES        CLOUDY    25  21  86 S8        29.89F WCI  16
$$
  *****  WEATHER ELSEWHERE ACROSS MINNESOTA  *****

CITY           SKY/WX    TMP DP  RH WIND       PRES   REMARKS
DULUTH         CLOUDY    18  10  71 S7        29.92F WCI   9
INTRNTL FALLS  CLOUDY    23  13  65 S9        29.80F WCI  13
ELY            CLOUDY    16  12  86 S5        29.88F WCI   9
CLOQUET        CLOUDY    18  12  79 SE3       29.92F
WHEATON        CLOUDY    25  21  86 S9        29.90F WCI  15
BRAINERD       CLOUDY    23  16  74 S8        29.92F WCI  14
HIBBING        CLOUDY    20  12  71 S5        29.89F WCI  13
ALEXANDRIA     CLOUDY    24  21  88 S9        29.92F WCI  14
SAINT CLOUD    CLOUDY    23  17  78 S7        29.96F WCI  15
MINNEAPOLIS    MOCLDY    22  15  75 S8        30.01F WCI  12
$$

  *****  WEATHER ACROSS SOUTH DAKOTA  *****

CITY           SKY/WX    TMP DP  RH WIND       PRES   REMARKS
SIOUX FALLS    CLOUDY    32  30  92 CALM      29.99F
BROOKINGS      NOT AVBL
WATERTOWN      CLOUDY    31  29  92 SW12      29.91F WCI  22
HURON          PTCLDY    32  30  92 S9        29.95F WCI  24
SISSETON         N/A     26  24  92 S8        29.89F WCI  18
ABERDEEN       MOCLDY    32  29  88 S12       29.90F WCI  23
MITCHELL       PTCLDY    32  31  96 S5        29.99S
PIERRE         MOCLDY    34  28  79 S3        29.89F
MOBRIDGE       CLOUDY    37  30  75 S7        29.82F
RAPID CITY     CLEAR     33  23  66 CALM      29.95S
$$

  *****  SOME WEATHER IN NEARBY STATES *****

CITY           SKY/WX    TMP DP  RH WIND       PRES   REMARKS
GLASGOW MT     CLEAR     38  32  79 N7        29.91S
GREAT FALLS MT CLOUDY    53  29  39 SW18      30.09R
CHEYENNE WY    CLEAR     41  24  51 W8        30.20R
SCOTTSBLUFF NE PTCLDY    34  30  85 NW3       30.11S
OMAHA NE       CLOUDY    35  31  85 E3        30.08S
DES MOINES IA  CLOUDY    33  24  69 N7        30.08S
DAVENPORT IA   CLEAR     14   8  77 N8        30.06F WCI   3
CHICAGO IL     PTCLDY    24  15  68 NE12      29.98S WCI  13
EAU CLAIRE WI  CLOUDY    18  10  71 SE5       30.02F WCI  11
LA CROSSE WI   CLOUDY    24  14  65 SE6       30.04F WCI  17
$$

  *****  SOME NATIONAL WEATHER *****

CITY           SKY/WX    TMP DP  RH WIND       PRES   REMARKS
LA GUARDIA NY  CLOUDY    31  12  45 N12       29.99R WCI  22
RALEIGH NC     MOCLDY    44  32  62 S7        29.83S
ATLANTA GA     LGT RAIN  47  42  83 N10       29.74F
NEW ORLEANS LA PTCLDY    55  44  66 W15       29.97R
OKLAHOMA CITY  CLEAR     38  26  62 W6        30.15S
ALBUQUERQUE NM PTCLDY    42  24  49 CALM      30.29R
SALT LAKE CITY PTCLDY    35  30  82 CALM      30.40R
LOS ANGELES CA MOCLDY    69  27  20 NW5       30.02S
BOISE ID       CLEAR     32  29  88 CALM      30.42R
SEATTLE WA     PTCLDY    48  45  89 NW3       30.03F
$$

*** WEATHER ACROSS MANITOBA...SASKATCHEWAN AND ONTARIO ***
                ***ONTARIO***

CITY           SKY/WX    TMP DP  RH WIND       PRES   REMARKS
GERALDTON      CLOUDY   -15 -20  76 SE2       29.94F
THUNDER BAY    FLURRIES   5   0  78 W3        30.00F
SIOUX LOOKOUT  FLURRIES  14   7  73 S9        29.76F WCI   2
TORONTO        MOCLDY    10   1  67 N10       30.06R WCI  -3
BIG TROUT LK   LGT SNOW   3   0  85 S7        29.79F WCI  -9
PICKLE LAKE    NOT AVBL
DRYDEN         CLOUDY    16  10  79 S12       29.74F WCI   3
KENORA         LGT SNOW  14  12  92 S13       29.66F DRFTSNOWWCI   0
$$
                *** MANITOBA***

CITY           SKY/WX    TMP DP  RH WIND       PRES   REMARKS
BRANDON        CLEAR     30  28  93 W16G23    29.58F WCI  19
DAUPHIN        PTCLDY    36  30  80 W17G24    29.53S
ISLAND LAKE    LGT SNOW   9   5  85 SE9       29.59F DRFTSNOWWCI  -5
PILOT MOUND      N/A     28  27  93 SW17        N/A  WCI  16
THE PAS        CLOUDY    32  28  86 NW21G29   29.46R WCI  20
THOMPSON       LGT SNOW   5   0  78 E7        29.60  WCI  -7
WINNIPEG       CLOUDY    23  19  86 S21G26    29.63F WCI   8
LYNN LAKE      CLOUDY     5   1  85 NE8       29.61R WCI  -8
CHURCHILL      CLEAR    -13 -18  77 E10       29.87R WCI -32
GILLAM         LGT SNOW   1  -2  85 E5        29.70F WCI  -8
$$
                ***SASKATCHEWAN***

CITY           SKY/WX    TMP DP  RH WIND       PRES   REMARKS
ESTEVAN        MOCLDY    37  34  87 W13       29.73R
KINDERSLEY     MOCLDY    36  32  87 W6        29.85R
LLOYDMINSTER   CLEAR     36  28  75 W13       29.78R
PRINCE ALBERT  CLEAR     39  30  70 W15       29.63R
REGINA         PTCLDY    37  32  81 W18       29.75R
YORKTON        CLEAR     37  30  75 W17       29.60R
N. BATTLEFORD  CLEAR     39  30  70 W12G17    29.77R
LA RONGE       FLURRIES  34  32  93 N9        29.61R
SASKATOON      CLEAR     36  28  75 NW12      29.75R
SWIFT CURRENT  PTCLDY    37  32  81 SW10      29.84S
$$
NOTE: THESE ARE AUTOMATED STATIONS WITH LIMITED QUALITY CONTROL
      "FAIR" INDICATES FEW OR NO CLOUDS BELOW 12,000 FEET WITH NO
      SIGNIFICANT WEATHER AND/OR OBSTRUCTIONS TO VISIBILITY.
      SKY/WX - SKY CONDITION AND SIGNIFICANT WEATHER.
      TMP - AIR TEMPERATURE.    DP   - DEWPOINT TEMPERATURE.
      RH  - RELATIVE HUMIDITY.  PRES - PRESSURE.
      HX  - HEAT INDEX.         WCI  - WIND CHILL INDEX.
$


USA.gov is the U.S. government's official web portal to all federal, state and local government web resources and services.